This demonstration page uses our WeatherBlox Daily Observations layout. Learn more.

Left ArrowRight Arrow

44.8408, -93.29828

Hourly Observations for July 15, 2016

Temp ( °F °C ) Dew Point ( °F °C ) Humidity (%) Winds ( mph kmh ) Pressure ( in mb ) Visibility ( mi km ) Precip ( " mm )
12:53 am 00:53 Cloudy with Light Rain 63 17.2 60 15.6 90 90 NNW 12 19 29.99 1016 6 10 0.03 0.76
1:53 am 01:53 Cloudy with Light Rain 62 16.7 59 15 90 90 N 14 22 30.01 1016 10 16 0.01 0.25
2:53 am 02:53 Cloudy with Light Rain 61 16.1 58 14.4 90 90 NNW 9 15 30.02 1017 10 16 0.02 0.51
3:53 am 03:53 Cloudy with Light Rain 61 16.1 58 14.4 90 90 N 7 11 30.03 1017 10 16 0.01 0.25
4:53 am 04:53 Cloudy 61 16.1 58 14.4 90 90 N 8 13 30.04 1017 10 16 0.01 0.25
5:53 am 05:53 Cloudy 61 16.1 58 14.4 90 90 NNE 5 7 30.05 1018 10 16 0.00 0.03
6:53 am 06:53 Cloudy 62 16.7 58 14.4 86 86 Calm 30.07 1018 10 16 0.00 0.03
7:53 am 07:53 Cloudy 63 17.2 58 14.4 84 84 N 5 7 30.09 1019 10 16 0.00 0.00
8:53 am 08:53 Cloudy 64 17.8 58 14.4 81 81 W 3 6 30.10 1019 10 16 0.00 0.00
9:53 am 09:53 Mostly Cloudy 66 18.9 57 13.9 73 73 Calm 30.10 1019 10 16 0.00 0.00
10:53 am 10:53 Mostly Cloudy 69 20.6 58 14.4 68 68 Calm 30.10 1019 10 16 0.00 0.00
11:53 am 11:53 Partly Cloudy 72 22.2 57 13.9 59 59 VRB 5 7 30.09 1019 10 16 0.00 0.00
12:53 pm 12:53 Mostly Cloudy 73 22.8 56 13.3 55 55 NNW 5 7 30.09 1019 10 16 0.00 0.00
1:53 pm 13:53 Mostly Cloudy 75 23.9 56 13.3 52 52 WNW 10 17 30.09 1019 10 16 0.00 0.00
2:53 pm 14:53 Partly Cloudy 78 25.6 54 12.2 43 43 NW 10 17 30.08 1019 10 16 0.00 0.00
3:53 pm 15:53 Mostly Cloudy 77 25 50 10 39 39 Calm 30.06 1018 10 16 0.00 0.00
4:06 pm 16:06 Mostly Cloudy 79 26 54 12 42 42 NW 7 11 30.00 1016 10 16 0.00 0.00
4:53 pm 16:53 Mostly Cloudy 76 24.4 53 11.7 45 45 NW 9 15 30.05 1018 10 16 0.00 0.00
5:53 pm 17:53 Mostly Cloudy 76 24.4 51 10.6 42 42 NW 9 15 30.04 1017 10 16 0.00 0.00
6:53 pm 18:53 Mostly Cloudy 74 23.3 51 10.6 45 45 NW 7 11 30.03 1017 10 16 0.00 0.00
7:53 pm 19:53 Partly Cloudy 76 24.4 50 10 40 40 VRB 7 11 30.03 1017 10 16 0.00 0.00
8:53 pm 20:53 Partly Cloudy 72 22.2 52 11.1 50 50 WNW 5 7 30.03 1017 10 16 0.00 0.00
9:53 pm 21:53 Partly Cloudy 70 21.1 53 11.7 55 55 WNW 3 6 30.05 1018 10 16 0.00 0.00
10:53 pm 22:53 Mostly Clear 69 20.6 54 12.2 59 59 Calm 30.06 1018 10 16 0.00 0.00
11:53 pm 23:53 Mostly Clear 67 19.4 55 12.8 66 66 Calm 30.06 1018 10 16 0.00 0.00

Powered by AerisWeather